Home   Weather   Hamm   Past weeks

Flag for Germany Past Weather in Hamm, North Rhine-Westphalia, Germany — Yesterday and Last 2 Weeks

Now
59 °F

Partly sunny.


Feels Like: 58 °F
Forecast: 49 / 59 °F
Wind: 8 mph from Southwest

Location: Dortmund / Wickede

Current Time: Oct 1, 2016 at 5:44:11 PM

Latest Report: Oct 1, 2016 at 4:50 PM


Visibility: N/A

Pressure: 29.74 "Hg

Humidity: 72%

Dew Point: 50 °F

Location of HammLocation

Past Weather in Hamm — Graph

°F

Hamm Temperature Yesterday

Maximum temperature yesterday: 63 °F (at 3:50 PM)
Minimum temperature yesterday: 48 °F (at 9:20 PM)
Average temperature yesterday: 57 °F

High & Low Weather Summary for the Past Weeks

 TemperatureHumidityPressure
High79 °F (Sep 25, 2:20 PM)88% (Sep 17, 9:20 PM)30.30 "Hg (Sep 17, 9:20 PM)
Low45 °F (Sep 21, 6:20 AM)28% (Sep 25, 2:20 PM)29.74 "Hg (Oct 1, 3:20 PM)
Average61 °F61%30.10 "Hg
* Reported Sep 16 4:20 PM — Oct 1 4:20 PM, Hamm, Weather by CustomWeather, © 2016

Note: Actual official high and low records may vary slightly from our data, if they occured in-between our weather recording intervals... More about our weather records

Advertising

Hamm Weather History for the Previous 24 Hours

Scroll right to see more
 ConditionsComfort  
Time TempWeatherWind HumidityBarometerVisibility
4:20 PM
Sat, Oct 1
59 °FPartly sunny.6 mph68%29.74 "HgN/A
3:50 PM59 °FPartly sunny.6 mph72%29.77 "HgN/A
3:20 PM57 °FPartly sunny.5 mph72%29.74 "HgN/A
2:50 PM59 °FPartly sunny.5 mph72%29.77 "HgN/A
2:20 PM57 °FPartly sunny.3 mph77%29.77 "HgN/A
1:50 PM57 °FPartly sunny.2 mph72%29.77 "HgN/A
1:20 PM55 °FPartly sunny.No wind77%29.77 "HgN/A
12:50 PM55 °FPartly sunny.3 mph77%29.80 "HgN/A
12:20 PM55 °FBroken clouds.3 mph77%29.80 "HgN/A
11:50 AM54 °FPartly sunny.6 mph82%29.77 "HgN/A
11:20 AM54 °FPartly sunny.5 mph82%29.80 "HgN/A
10:50 AM54 °FScattered clouds.5 mph82%29.80 "HgN/A
10:20 AM54 °FScattered clouds.2 mph82%29.80 "HgN/A
9:50 AM54 °FScattered clouds.2 mph82%29.80 "HgN/A
9:20 AM52 °FScattered clouds.No wind88%29.80 "HgN/A
8:50 AM52 °FSprinkles. Partly sunny.2 mph88%29.80 "HgN/A
8:20 AM52 °FSunny.2 mph82%29.83 "Hg10 mi
7:50 AM52 °FScattered showers. Partly sunny.5 mph88%29.83 "HgN/A
7:20 AM52 °FClear.3 mph82%29.83 "Hg10 mi
6:50 AM52 °FClear.3 mph82%29.83 "Hg10 mi
6:20 AM52 °FPassing clouds.2 mph82%29.83 "HgN/A
5:50 AM52 °FPassing clouds.6 mph82%29.83 "HgN/A
5:20 AM52 °FLight rain. Passing clouds.7 mph88%29.83 "HgN/A
9:50 PM
Fri, Sep 30
48 °FClear.7 mph76%29.95 "Hg10 mi
9:20 PM48 °FClear.7 mph76%29.95 "Hg10 mi
8:50 PM50 °FClear.7 mph76%29.95 "Hg10 mi
8:20 PM50 °FClear.7 mph76%29.95 "Hg10 mi
7:50 PM52 °FClear.5 mph72%29.95 "Hg10 mi
7:20 PM52 °FClear.7 mph67%29.95 "Hg10 mi
6:50 PM57 °FSunny.7 mph63%29.95 "Hg10 mi
6:20 PM59 °FPassing clouds.8 mph59%29.95 "HgN/A
5:50 PM61 °FSunny.9 mph48%29.95 "Hg10 mi
5:20 PM61 °FPassing clouds.13 mph52%29.95 "HgN/A
Weather by CustomWeather, © 2016

See weather overviewHow to use our weather pages